Location: Antichan
(42.9728°N, 0.6667°E)
Time: 18:10:33
(UTC+00:00)

Cosmos 2227 Rocket - Pass Details

Date: 15 August 2020
Orbit: 840 x 844 km, 71.0° (Epoch: 16 September)

Event Time Altitude Azimuth Distance (km) Brightness Sun altitude
Exits shadow 23:21:48 26° 56° (ENE) 1,601 3.8 -32.6°
Drops below altitude 10° 23:24:31 10° 38° (NE) 2,470 5.0 -32.7°
Sets 23:27:06 0° 32° (NNE) 3,408 6.0 -32.8°
